This demonstration page uses our WeatherBlox Daily Observations layout. Learn more.

Left ArrowRight Arrow

39.08367, -84.50855

Hourly Observations for December 18, 2015

Temp ( °F °C ) Dew Point ( °F °C ) Humidity (%) Winds ( mph kmh ) Pressure ( in mb ) Visibility ( mi km ) Precip ( " mm )
12:53 am 00:53 Cloudy 33 0.6 25 -3.9 72 72 NW 3 6 30.02 1017 10 16 0.00 0.00
1:53 am 01:53 Cloudy 32 0 23 -5 69 69 VRB 5 7 30.02 1017 10 16 0.00 0.00
2:53 am 02:53 Cloudy 32 0 23 -5 69 69 W 8 13 30.03 1017 10 16 0.00 0.00
3:53 am 03:53 Cloudy 32 0 22 -5.6 66 66 NNW 8 13 30.03 1017 10 16 0.00 0.00
4:53 am 04:53 Cloudy 32 0 22 -5.6 66 66 W 9 15 30.03 1017 10 16 0.00 0.00
5:12 am 05:12 Cloudy 31 -0.6 21 -6.1 67 67 W 8 13 30.06 1018 10 16 0.00 0.00
5:53 am 05:53 Cloudy 31 -0.6 21 -6.1 67 67 NNW 5 7 30.04 1017 10 16 0.00 0.00
6:53 am 06:53 Cloudy 32 0 21 -6.1 64 64 VRB 3 6 30.04 1017 10 16 0.00 0.00
7:53 am 07:53 Cloudy 32 0 20 -6.7 61 61 W 12 19 30.05 1018 10 16 0.00 0.00
8:53 am 08:53 Cloudy 32 0 20 -6.7 61 61 W 12 19 30.06 1018 10 16 0.00 0.00
9:53 am 09:53 Cloudy 33 0.6 21 -6.1 61 61 W 14 22 30.09 1019 10 16 0.00 0.00
10:53 am 10:53 Mostly Cloudy 34 1.1 22 -5.6 61 61 WSW 9 15 30.09 1019 10 16 0.00 0.00
11:53 am 11:53 Mostly Cloudy 36 2.2 21 -6.1 55 55 SW 13 20 30.07 1018 10 16 0.00 0.00
12:53 pm 12:53 Mostly Cloudy 36 2.2 20 -6.7 52 52 W 16 26 30.06 1018 10 16 0.00 0.00
1:53 pm 13:53 Cloudy 36 2.2 20 -6.7 52 52 WSW 16 26 30.05 1018 10 16 0.00 0.00
2:53 pm 14:53 Cloudy 35 1.7 21 -6.1 57 57 W 22 35 30.07 1018 10 16 0.00 0.00
3:53 pm 15:53 Mostly Cloudy 34 1.1 15 -9.4 46 46 WNW 22 35 30.11 1020 10 16 0.00 0.03
4:53 pm 16:53 Mostly Sunny 33 0.6 11 -11.7 40 40 W 25 41 30.14 1021 10 16 0.00 0.00
5:53 pm 17:53 Clear 31 -0.6 13 -10.6 47 47 W 16 26 30.17 1022 10 16 0.00 0.00
6:53 pm 18:53 Clear 28 -2.2 15 -9.4 58 58 SW 9 15 30.19 1022 10 16 0.00 0.00
7:53 pm 19:53 Cloudy 30 -1.1 15 -9.4 54 54 SW 9 15 30.20 1023 10 16 0.00 0.00
8:53 pm 20:53 Mostly Cloudy 29 -1.7 15 -9.4 56 56 SSW 7 11 30.22 1023 10 16 0.00 0.00
9:53 pm 21:53 Cloudy 30 -1.1 17 -8.3 58 58 SSW 9 15 30.22 1023 10 16 0.00 0.00
10:53 pm 22:53 Cloudy 31 -0.6 17 -8.3 56 56 SSW 10 17 30.22 1023 10 16 0.00 0.00
11:53 pm 23:53 Cloudy 31 -0.6 16 -8.9 54 54 SSW 13 20 30.22 1023 10 16 0.00 0.00

Powered by AerisWeather